Regional Weather Roundup
Issued by NWS

Home | Current Version | Previous Version | Graphics & Text | Print | Product List | Glossary On
Versions: 1 2 3 4 5 6 7 8 9 10 11 12 13 14 15 16 17 18 19 20 21 22 23 24 25 26 27 28 29 30 31 32 33 34 35 36 37 38 39 40 41 42 43 44 45 46 47 48 49 50
000
ASUS43 KOAX 242102
RWRNE

WEATHER ROUNDUP FOR NEBRASKA
NATIONAL WEATHER SERVICE OMAHA NE
400 PM CDT MON JUL 24 2017

NOTES: SATELLITE DATA IS BEING USED TO AUGMENT CLOUD COVER ABOVE
       12000 FEET.
       "FAIR" INDICATES FEW OR NO CLOUDS BELOW 12,000 FEET WITH NO
       SIGNIFICANT WEATHER AND/OR OBSTRUCTIONS TO VISIBILITY.


NEZ001>004-019>022-054>056-242200-
NEBRASKA PANHANDLE

CITY           SKY/WX    TMP DP  RH WIND       PRES   REMARKS
SCOTTSBLUFF    FAIR     100  37  11 VRB7      29.91F HX  95
ALLIANCE       FAIR     101  39  12 S8G18     29.89F HX  96
CHADRON        FAIR     103  30   8 W13G18    29.82F HX  96
GORDON         FAIR      99  49  18 SW12G20   29.86F HX  95
KIMBALL        PTSUNNY   93  44  18 S5        30.00S
SIDNEY         FAIR     100  47  16 S14G20    29.97F HX  96
$$

NEZ057>060-069>072-079>082-242200-
SOUTHWEST NEBRASKA

CITY           SKY/WX    TMP DP  RH WIND       PRES   REMARKS
NORTH PLATTE   FAIR      99  52  20 S20       29.90F HX  96
IMPERIAL       FAIR      98  53  22 S18G26    29.93F HX  96
LEXINGTON      FAIR      91  70  50 SE17      29.94F HX  95
MCCOOK         FAIR      99  50  19 S21G28    29.93F HX  96
OGALLALA       FAIR      99  51  20 S20       29.91F HX  96
$$

NEZ005>010-023>029-035>040-094-242200-
NORTH CENTRAL NEBRASKA

CITY           SKY/WX    TMP DP  RH WIND       PRES   REMARKS
VALENTINE      FAIR     105  42  11 SW28      29.82F HX 100
AINSWORTH      FAIR     100  53  20 S23G32    29.85F HX  98
BROKEN BOW     FAIR      95  65  37 S21G26    29.93F HX  97
O`NEILL        FAIR      91  68  45 S16G24    29.90S HX  95
ORD            FAIR      92  67  43 S16G25    29.90F HX  95
THEDFORD       FAIR     100  53  20 SW24G35   29.89S HX  98
$$

NEZ041-046>049-061>064-073>077-083>087-242200-
SOUTH CENTRAL NEBRASKA

CITY           SKY/WX    TMP DP  RH WIND       PRES   REMARKS
GRAND ISLAND   FAIR      89  73  59 SE13      29.96F HX  97
AURORA         FAIR      88  69  53 S10       29.96F HX  92
HASTINGS       FAIR      91  69  48 S12G21    29.97F HX  96
HEBRON         FAIR      92  70  48 SE9       29.95F HX  97
HOLDREGE       FAIR      90  67  46 SE13      29.96F HX  93
KEARNEY        FAIR      91  69  48 S18G25    29.95F HX  96
YORK           FAIR      86  70  58 SE13      29.96F HX  90
$$

NEZ011>018-030>034-042>045-242200-
NORTHEAST NEBRASKA

CITY           SKY/WX    TMP DP  RH WIND       PRES   REMARKS
NORFOLK        FAIR      88  64  44 S17       29.94F
ALBION         FAIR      89  71  55 SE15G24   29.94F HX  94
BLAIR          FAIR      85  66  52 SE6       29.98F
COLUMBUS       FAIR      86  68  54 SE14G21   29.96F
FREMONT        FAIR      85  64  47 SE9G16    29.98S
TEKAMAH        FAIR      85  65  51 SE12      29.96F
WAYNE          FAIR      85  67  55 SE15G22   29.95F
$$

NEZ050>053-065>068-078-088>093-242200-
SOUTHEAST NEBRASKA

CITY           SKY/WX    TMP DP  RH WIND       PRES   REMARKS
LINCOLN        FAIR      88  67  49 S9        29.97F HX  91
OMAHA EPPLEY   FAIR      86  64  47 SE13      29.97F
BEATRICE       FAIR      90  68  48 SE9       29.96F HX  94
FALLS CITY     FAIR      86  69  56 VRB5      29.97F HX  90
NEBRASKA CITY  FAIR      83  69  61 E6        29.99F
PLATTSMOUTH    FAIR      83  65  53 SE7       29.99F
$$

NEZ044-045-051>053-067-242200-
OMAHA AREA

CITY           SKY/WX    TMP DP  RH WIND       PRES   REMARKS
OMAHA EPPLEY   FAIR      86  64  47 SE13      29.97F
BLAIR          FAIR      85  66  52 SE6       29.98F
FREMONT        FAIR      85  64  47 SE9G16    29.98S
MILLARD        FAIR      87  68  53 SE9       29.97F HX  90
OFFUTT AFB     FAIR      86  64  48 SE12      29.98F
PLATTSMOUTH    FAIR      83  65  53 SE7       29.99F
WAHOO          FAIR      85  64  49 SE12      29.97F
$$



USA.gov is the U.S. government's official web portal to all federal, state and local government web resources and services.